Auburn, West Virginia
Current Conditions -  °F | °C
As of 3:15 PM on Friday 31 Oct 2014 (Local Time) from KW22 Reporting Station
Scattered Clouds Scattered Clouds  
Wind Chill: 45°   Ceiling: Unl
Heat Index: 45°   Visibility: 9mi
Dew Point: 36°   Wind: 0mph
Humidity: 71%   Direction: NA
Pressure: 29.84"   Gusts: NA
Location:  39.1°N, 80.86°W
Report Text: KW22 311915Z AUTO 00000KT 9SM FEW013 FEW022 SCT032 07/02 A2984 RMK AO2
Loading
Personal Weather Stations






























Interactive Weather Map
Tropical Storm Tracking
New forecast layout! Learn more

10-Day Weather Forecast

Advertisements
Track Severe Weather on mobile